STARLINK-1039, 44744

Orbit data source: Space-Track

STARLINK-1039, 44744 is a payload satellite owned by SpaceX/Seattle (US) in LEO that was launched on Mon, 11 Nov 2019 UTC via an FALCON 9 launch vehicle from the Air Force Eastern Test Range (AFETR). Payload-class satellites include a variety of spacecraft equipped with specific instruments for various scientific and technological missions. These include communications satellites like Starlink; space stations such as the ISS; scientific satellites like the Hubble; Earth observation satellites from companies like Planet Labs, Umbra, and HawkEye 360; GPS; miniature CubeSats for education and research; and military/defense satellites.

Loading next visibility...
Identifier
44744, 2019-074AH
Orbit
LEO
Country
Flag of USUS
Related business
Manufacturer
SpaceX/Seattle
Mission
Partially operational Commercial Communications
Bus & Motor
STARLINK, Unknown motor
Mass
260 kg wet, ~248 kg dry
Launch date (UTC)
2019-11-11 (6 years ago)
Launch vehicle
FALCON 9
Launch site
Air Force Eastern Test Range (AFETR)
Object type
Payload
Rocket body
Debris
Shape & HBR
Box + 1 Pan, 10.1 m
Radar Cross Section
13.562 m², Large (>1 m²)

Expand to show TLE details & history
Last TLE update: 7 hours ago

TLE from 7 hours ago
0 STARLINK-1039
1 44744U 19074AH  25286.95484886  .00037884  00000-0  22222-2 0  9991
2 44744  53.0497 163.9966 0007058  89.1951 270.9849 15.11402695326099
Epoch: 2025-10-13T22:54Z
TLE epoch observation values (Epoch: 2025-10-13T22:54:58.941Z)
Latitude
-0°
Longitude
157.5008°
Altitude
532.722 km
Speed
7.598 km/s
True Right ascension
10h 55m 59s
True Declination
0° 00' 00"
Sunlit
Object was in daylight at epoch
Visualization orbit readout
Latitude
Unknown
Longitude
Unknown
Altitude
Unknown
Speed
Unknown
Apparent Right ascension
Unknown
Apparent Declination
Unknown
Sunlit
N/A
Visualization observer readout
Local Sidereal Time
00:04:01
Azimuth
Unknown
Elevation
Unknown
Doppler factor
Unknown
Orbital elements
Apogee altitude
537.071 km
Perigee altitude
527.316 km
Semi-major axis
6,910.33 km
Eccentricity
0.00071
Inclination
53.0497°
RAAN
163.9966°
Arg. of periapsis
89.1951°
True anomaly
270.90403°
Mean anomaly
270.9849°
Eccentric anomaly
270.94447°
Mean motion
3.77829 °/min
Orbital period
95.28 mins
BSTAR
0.0022222
Loading maneuver chart data...
Computing Atmospheric mass density...

Documentation

Showing up to 5 results
|